Temperature
27 26 25 24 23 22 21 21 21 20 20 20 20 20 19 19 19 19 19 19 19 18 19 18 18 18 18 18 18 18 18 18 18 18 18 19 19 19 19 19 19 18 18
28 26 25 25 23 22 22 21 21 21 20 20 20 20 20 20 19 19 19 19 19 19 19 19 19 18 18 18 18 18 18 18 18 18 18 18 19 19 19 19 19 19 19
28 27 26 25 24 23 22 21 21 21 21 20 20 20 20 20 19 19 19 19 19 19 19 19 19 18 18 18 18 18 18 18 18 18 18 18 18 19 19 19 19 19 19
29 27 26 25 24 23 22 22 21 21 21 20 20 20 20 20 20 20 19 19 19 19 19 19 19 19 18 18 18 18 18 18 18 18 18 18 18 18 18 19 19 19 18
30 28 27 26 25 24 23 22 22 21 21 21 20 20 20 20 20 20 20 19 19 19 19 19 19 19 19 19 19 18 18 18 18 18 18 18 18 18 18 18 18 18 18
30 29 28 26 25 24 23 22 22 22 21 21 21 20 20 20 20 20 20 19 19 19 19 19 19 19 19 19 19 18 18 18 18 18 18 18 18 18 18 18 18 18 18
30 29 28 27 26 25 24 23 22 22 22 21 21 21 20 20 20 20 20 20 20 19 19 19 19 19 19 18 18 18 18 18 18 18 18 18 18 18 18 18 18 18 18
30 29 28 27 26 25 24 23 23 22 22 22 21 21 21 20 20 20 20 20 20 20 20 19 19 19 19 18 18 18 18 18 18 18 18 18 18 18 18 18 18 17 17
31 30 29 27 26 25 24 24 23 22 22 22 22 21 21 21 20 20 20 20 20 20 20 19 19 19 19 18 18 18 18 18 18 18 18 18 18 18 18 18 18 17 17
31 30 29 28 26 25 25 24 23 23 22 22 22 21 21 21 21 20 20 20 20 20 20 19 19 19 19 19 18 18 18 18 18 18 18 18 18 18 18 18 18 17 17
31 30 29 28 27 25 24 24 23 22 22 22 22 21 21 21 21 20 20 20 20 20 20 19 19 19 18 18 18 18 18 18 18 18 18 18 18 18 17 17 17 17 17
30 29 28 27 26 26 24 23 23 22 22 22 22 21 21 21 20 20 20 20 20 20 20 19 19 19 18 18 18 18 18 18 18 18 17 17 17 17 17 17 17 17 17
29 28 27 26 26 25 24 23 23 22 22 21 21 21 21 21 20 20 20 20 20 20 19 19 19 19 18 18 18 18 18 18 18 17 17 17 17 17 17 17 17 17 17
27 27 26 25 25 24 24 24 23 22 22 21 21 21 21 21 21 20 20 20 19 19 19 19 19 19 18 18 18 18 18 18 18 17 17 17 17 17 17 17 17 16 16
25 25 24 24 24 24 23 23 23 22 22 21 21 20 20 20 20 20 20 19 19 19 19 19 19 18 18 18 18 18 18 17 17 17 17 17 17 17 17 16 16 16 16
24 24 23 23 23 23 23 22 22 22 21 21 21 20 20 20 20 19 19 19 19 19 19 19 18 18 18 17 18 18 17 17 17 17 17 17 17 17 16 16 16 16 16
23 23 22 22 22 22 22 22 21 21 21 21 20 20 20 19 19 19 19 19 19 19 18 18 18 18 18 18 18 18 17 17 17 17 17 16 16 16 16 16 16 16 16
22 22 22 21 21 21 21 21 21 21 20 20 20 20 19 19 19 19 19 19 19 18 18 18 18 18 18 18 18 18 17 17 17 17 16 16 16 16 16 16 16 15 15
21 21 21 21 21 21 21 21 20 20 20 20 19 19 19 19 19 19 19 18 18 18 18 18 18 18 17 17 17 17 17 17 16 16 16 16 16 16 16 15 15 15 15
21 20 20 20 20 20 20 20 20 20 19 19 19 19 19 19 18 18 18 18 18 18 18 18 18 18 17 17 17 17 16 16 16 16 16 16 15 15 15 15 15 15 15
20 19 19 19 19 19 19 19 19 19 19 19 19 18 18 18 18 18 18 18 17 17 17 17 17 17 17 17 17 16 16 16 15 15 15 15 15 15 15 15 15 14 14
19 19 18 18 18 18 18 18 18 18 18 18 18 18 18 18 18 18 18 17 17 17 17 17 17 16 16 16 16 16 16 15 15 15 15 15 15 15 14 14 14 14 14
18 18 18 18 18 18 18 18 18 18 17 17 17 17 17 17 17 17 17 17 17 16 16 16 16 16 16 16 16 16 15 15 15 14 14 14 14 14 14 14 14 14 13
17 17 17 17 17 17 17 17 17 17 17 17 17 17 17 17 17 17 17 17 16 16 16 16 16 16 15 15 15 15 15 14 14 14 14 14 14 13 13 13 13 13 13
17 17 17 17 17 16 16 16 16 16 16 16 16 16 16 16 16 16 16 16 16 16 16 16 15 15 15 15 15 14 14 14 14 14 13 13 13 13 13 13 13 13 12
16 16 16 16 16 16 16 15 16 16 15 15 15 16 16 16 16 16 16 16 16 15 15 15 15 15 15 14 14 14 14 14 13 13 13 13 12 12 12 12 12 12 12
Wind_Speed
14 14 13 14 13 11 10 9 8 8 6 5 5 4 4 3 3 3 5 6 5 4 3 1 2 2 2 2 2 2 2 3 2 1 1 3 4 4 4 3 3 3 5
15 14 14 14 14 12 11 10 9 9 8 6 4 4 4 3 3 3 4 5 5 4 5 3 3 3 2 2 3 2 2 3 3 2 1 2 2 2 4 4 5 5 4
16 15 14 13 14 14 13 12 10 10 8 7 5 4 3 2 3 4 4 4 5 5 3 4 3 3 3 3 4 4 4 4 3 3 2 2 2 1 2 4 4 4 3
16 16 15 14 14 14 14 11 10 9 8 7 6 7 6 5 4 4 4 5 5 5 4 4 3 2 2 3 4 4 4 4 4 3 3 3 2 1 1 2 2 3 3
16 17 17 15 14 15 14 12 11 9 9 8 7 6 5 4 4 4 5 5 5 5 4 4 3 3 2 2 2 1 3 3 4 3 3 3 3 4 3 3 2 2 2
12 15 16 14 13 13 13 13 12 10 9 8 7 7 6 4 4 4 5 5 4 4 4 4 3 3 3 2 3 2 3 3 4 3 3 2 2 3 3 4 3 3 3
11 13 15 16 14 14 14 14 13 11 10 10 8 7 6 6 5 5 5 5 4 4 5 4 4 3 3 3 3 3 3 3 4 3 3 3 3 3 2 3 3 3 2
14 14 16 15 14 14 14 14 14 12 11 10 8 7 6 6 5 5 4 5 3 3 5 5 5 4 3 3 3 3 3 3 4 4 3 3 3 3 3 3 3 2 2
11 13 14 14 14 14 13 13 13 12 11 10 9 7 7 6 5 5 5 4 3 4 6 5 5 4 4 3 3 3 3 2 3 3 3 3 3 3 2 2 3 2 2
12 13 13 14 13 12 11 12 12 11 10 9 9 9 8 6 5 5 5 4 4 3 4 5 4 4 4 4 3 3 3 3 3 3 2 2 3 2 2 2 2 2 2
10 10 11 13 12 12 12 11 12 11 10 9 8 7 8 7 7 6 6 5 4 4 4 5 5 4 4 4 4 4 4 4 3 3 2 2 2 2 3 2 2 2 1
8 10 9 9 10 10 10 10 10 11 10 9 9 8 7 7 7 7 6 5 5 4 4 4 5 5 5 4 4 4 3 3 3 2 2 2 2 2 2 2 2 1 1
8 8 9 7 7 8 8 9 9 9 9 9 8 8 8 7 7 6 5 5 5 5 5 5 4 4 4 4 4 4 3 3 2 2 2 3 2 2 2 2 2 2 2
8 8 8 6 5 5 6 6 7 7 8 8 8 8 8 7 7 6 6 6 5 5 4 4 4 4 3 3 3 4 3 3 2 2 3 3 2 2 3 3 2 2 2
8 7 7 6 5 4 5 5 4 4 5 6 7 7 6 6 6 5 5 5 5 6 4 4 4 4 4 4 3 3 4 3 3 3 3 3 3 2 1 2 1 2 2
7 6 6 6 4 4 3 3 3 3 3 4 4 5 5 5 6 6 5 5 5 4 4 4 4 4 3 2 2 2 2 2 3 3 3 3 3 3 3 2 1 1 2
6 5 6 5 4 3 2 1 1 2 3 3 3 3 4 5 5 6 5 6 5 5 4 4 4 4 3 3 3 2 2 3 3 3 3 5 3 4 3 3 4 3 3
5 4 4 3 3 2 1 1 2 1 2 2 2 2 3 4 4 4 4 4 4 4 5 4 4 3 4 5 3 3 4 4 3 3 4 4 2 3 2 3 3 3 3
5 5 4 4 4 4 2 2 2 1 1 2 2 3 3 3 3 4 4 4 4 4 4 4 4 4 4 5 5 4 2 3 3 3 3 3 3 3 4 3 3 2 2
4 4 5 4 5 4 4 2 2 1 1 1 1 2 2 3 3 4 4 4 4 4 4 4 4 4 4 6 5 5 3 3 3 3 3 3 3 4 5 4 3 3 3
4 4 4 3 3 3 3 2 2 2 1 1 2 2 2 3 4 4 3 3 3 4 4 4 4 4 4 6 7 7 4 3 2 2 2 1 4 5 5 4 3 3 2
3 3 2 3 3 3 3 2 1 2 2 2 2 3 3 3 3 2 3 3 3 4 4 4 3 3 3 4 6 8 7 3 2 2 0 1 4 4 4 3 3 3 3
3 3 3 3 3 2 1 1 1 2 2 2 2 3 3 2 2 2 3 3 3 4 3 3 3 2 3 3 6 7 5 4 2 1 2 2 3 4 3 5 4 3 3
2 2 2 2 2 3 3 2 1 2 2 3 3 3 3 3 2 2 2 2 2 2 2 2 2 2 2 2 2 2 2 2 2 1 1 2 3 3 3 3 4 3 3
1 2 2 2 2 3 3 3 2 2 2 3 3 4 3 2 2 1 1 0 0 1 1 1 1 1 1 1 2 2 2 2 2 2 2 1 1 2 3 3 3 3 3
2 3 3 3 3 3 4 4 3 3 3 4 4 4 3 2 2 2 2 5 3 2 2 1 2 2 3 3 3 2 2 2 2 2 2 2 2 2 2 2 1 1 2
Wind_Direction
171 160 166 166 160 157 159 165 171 161 166 172 174 182 178 183 178 171 157 167 198 185 183 222 176 201 195 199 204 187 210 232 237 255 278 263 231 216 207 212 217 201 205
171 165 172 170 165 163 164 167 174 170 180 173 176 181 174 183 189 175 150 176 195 192 196 193 205 199 185 211 224 205 219 241 217 209 229 267 271 257 221 197 208 211 206
170 169 174 173 170 168 171 178 178 173 183 171 180 182 162 188 189 178 165 185 200 199 202 183 215 204 198 202 216 211 222 234 242 225 212 228 244 281 272 221 214 198 196
171 171 175 177 176 172 174 170 169 172 176 177 189 189 187 193 193 180 171 182 196 201 191 190 202 218 220 199 223 212 222 227 244 247 234 231 226 218 282 298 280 226 214
177 173 176 177 177 174 171 167 166 172 176 188 192 197 200 194 185 167 169 183 190 200 189 181 191 198 218 218 227 252 232 239 245 250 243 243 233 223 224 251 267 271 251
175 172 171 168 171 169 167 166 166 173 178 190 194 198 208 194 183 177 174 188 184 190 190 182 184 194 218 218 217 230 219 243 255 259 256 238 230 226 229 241 244 244 247
172 171 167 167 169 169 168 166 168 175 181 188 194 195 204 202 200 198 186 198 192 185 183 192 179 195 210 216 219 217 234 237 249 246 256 260 249 243 238 239 247 251 252
174 174 170 166 169 172 171 168 169 176 182 186 190 191 193 205 202 204 205 202 208 185 167 179 181 192 207 224 213 230 228 228 239 247 240 256 258 246 238 239 244 258 252
169 165 164 164 171 175 171 169 167 174 182 185 182 187 189 204 209 190 209 209 206 194 168 181 183 189 201 225 226 224 247 241 242 254 250 257 260 253 245 246 238 232 254
166 164 165 164 167 174 169 165 166 173 179 183 185 187 191 195 203 211 211 213 200 203 174 184 191 196 198 210 229 232 234 236 234 234 239 258 280 288 265 251 249 229 235
162 160 158 154 161 168 172 166 166 171 178 182 184 186 183 193 203 211 211 210 206 197 193 195 200 206 206 206 212 230 225 225 233 246 232 234 247 279 289 287 270 256 222
142 143 140 147 155 159 164 163 168 175 178 179 179 185 182 188 198 203 204 198 204 203 197 200 202 211 211 207 215 238 238 229 227 233 255 260 250 239 268 290 281 270 216
98 108 127 143 149 151 155 160 170 175 176 175 177 182 187 189 196 201 196 194 198 205 204 201 205 217 216 207 215 225 237 239 232 227 237 250 255 266 261 266 284 292 272
92 95 101 107 114 130 138 147 158 167 174 173 178 182 191 190 192 197 195 194 196 204 206 207 210 212 220 225 223 217 224 234 230 225 230 236 228 238 250 253 253 270 285
77 81 97 99 110 123 126 136 148 156 164 169 180 183 185 188 188 193 197 194 198 203 197 205 207 210 216 229 224 223 223 221 230 227 228 225 201 185 211 259 277 270 253
84 73 75 77 83 87 107 129 145 145 153 170 183 178 184 191 194 197 195 192 197 201 195 200 201 212 222 191 185 216 251 241 240 240 245 230 194 185 185 186 186 235 244
76 76 72 67 58 57 56 96 147 155 160 167 184 184 187 187 191 200 191 193 196 198 198 203 202 199 178 150 156 185 233 241 247 247 248 259 231 174 186 189 205 215 206
76 64 71 72 66 49 74 57 70 149 163 166 186 194 202 202 198 198 197 194 193 196 200 205 200 193 187 171 169 184 223 237 239 239 236 241 226 208 195 198 206 210 200
60 44 46 60 49 32 40 62 48 38 174 169 191 215 212 206 205 205 202 199 197 202 203 198 192 193 180 169 171 169 221 232 243 248 240 229 211 196 185 206 221 218 197
65 50 32 44 53 43 32 50 53 57 52 34 254 232 221 207 209 216 212 203 198 205 204 199 192 194 187 176 181 184 216 226 229 230 230 218 203 176 178 204 222 228 226
68 63 48 32 46 36 29 30 15 1 355 329 285 275 249 225 212 205 206 212 215 209 208 207 200 197 189 172 184 188 218 243 234 233 228 191 164 165 179 203 222 227 227
68 71 52 36 37 32 27 29 352 336 329 312 277 267 262 251 229 212 215 213 219 220 215 213 203 190 177 177 187 192 209 247 267 262 256 114 134 168 195 208 227 238 245
24 33 31 28 26 22 14 321 299 310 310 302 288 269 262 260 243 228 227 220 218 226 224 212 206 189 175 171 174 189 213 245 257 306 66 113 161 177 198 210 211 214 227
5 351 344 360 0 346 327 312 292 281 283 281 277 262 240 240 239 255 243 213 236 232 223 218 217 184 149 131 135 161 177 195 215 236 166 159 192 222 223 206 206 213 229
327 314 314 320 323 327 321 324 330 303 288 279 272 270 260 238 206 172 17 168 316 230 253 260 214 196 181 169 172 175 186 198 192 181 180 174 177 209 216 211 209 206 211
315 302 301 311 321 326 326 329 324 305 290 284 279 273 261 236 208 164 109 65 88 81 87 138 148 109 110 129 126 135 165 189 167 164 186 187 191 203 208 203 197 202 210
Height
1501 1504 1509 1511 1513 1515 1517 1520 1522 1523 1525 1527 1528 1530 1532 1533 1535 1536 1536 1537 1538 1539 1540 1541 1542 1543 1544 1544 1545 1546 1547 1548 1548 1549 1549 1549 1549 1549 1550 1550 1551 1551 1551
1497 1501 1505 1509 1511 1513 1515 1518 1520 1522 1524 1526 1527 1529 1531 1532 1534 1535 1535 1536 1537 1538 1540 1540 1541 1542 1542 1543 1544 1544 1545 1546 1547 1547 1548 1548 1548 1547 1548 1548 1548 1549 1549
1492 1497 1502 1505 1508 1510 1513 1516 1518 1520 1522 1524 1526 1529 1530 1531 1533 1534 1534 1535 1536 1537 1538 1539 1540 1540 1541 1541 1542 1543 1543 1544 1545 1546 1547 1547 1546 1545 1546 1546 1546 1547 1547
1488 1493 1498 1502 1506 1508 1511 1514 1516 1518 1520 1523 1525 1527 1528 1529 1531 1532 1533 1534 1535 1536 1537 1537 1538 1538 1539 1540 1540 1541 1542 1543 1543 1544 1544 1545 1544 1544 1544 1544 1544 1544 1544
1484 1488 1493 1498 1503 1506 1509 1511 1514 1516 1519 1521 1523 1525 1527 1528 1529 1530 1531 1532 1533 1534 1535 1536 1536 1537 1537 1538 1538 1539 1539 1540 1541 1541 1541 1542 1542 1542 1542 1542 1542 1542 1542
1481 1485 1490 1495 1500 1504 1507 1509 1511 1514 1516 1519 1521 1523 1525 1527 1528 1529 1530 1531 1532 1532 1533 1534 1535 1535 1535 1536 1536 1537 1537 1538 1538 1538 1539 1539 1539 1539 1539 1539 1539 1539 1539
1478 1483 1487 1492 1496 1501 1504 1506 1508 1511 1514 1516 1519 1521 1523 1524 1526 1527 1528 1529 1530 1531 1531 1532 1532 1533 1533 1534 1534 1535 1535 1535 1535 1536 1536 1536 1536 1537 1537 1537 1536 1536 1536
1473 1479 1483 1488 1493 1497 1501 1504 1506 1508 1511 1514 1516 1518 1520 1522 1524 1525 1526 1527 1528 1529 1529 1530 1530 1530 1531 1532 1532 1532 1533 1533 1533 1533 1533 1533 1534 1534 1534 1534 1534 1534 1534
1470 1475 1480 1486 1490 1495 1498 1501 1503 1506 1509 1511 1514 1516 1517 1519 1521 1523 1524 1525 1526 1527 1527 1528 1528 1528 1529 1529 1530 1530 1530 1531 1531 1531 1531 1531 1531 1531 1531 1531 1531 1532 1531
1467 1472 1477 1483 1488 1492 1496 1499 1501 1503 1506 1509 1511 1513 1515 1516 1518 1520 1522 1523 1524 1525 1525 1525 1526 1526 1526 1527 1527 1528 1528 1528 1528 1528 1528 1528 1528 1528 1529 1529 1529 1529 1529
1466 1470 1475 1480 1485 1490 1494 1496 1499 1501 1504 1506 1508 1511 1512 1514 1515 1517 1519 1520 1521 1522 1523 1523 1523 1524 1524 1524 1525 1525 1525 1526 1526 1526 1526 1526 1526 1526 1526 1526 1526 1526 1526
1465 1469 1475 1479 1484 1488 1492 1495 1497 1499 1501 1504 1506 1508 1510 1511 1513 1514 1516 1517 1518 1519 1520 1520 1521 1521 1522 1522 1522 1522 1523 1523 1523 1523 1523 1524 1524 1523 1523 1523 1523 1524 1523
1465 1469 1474 1479 1483 1487 1490 1493 1496 1498 1500 1501 1503 1505 1507 1508 1510 1512 1513 1514 1515 1516 1517 1518 1518 1519 1519 1519 1520 1520 1521 1521 1521 1521 1521 1521 1521 1521 1521 1521 1521 1521 1521
1467 1470 1474 1478 1482 1486 1488 1491 1493 1496 1498 1500 1501 1502 1504 1505 1507 1509 1510 1511 1512 1513 1514 1515 1515 1516 1516 1517 1517 1518 1518 1518 1518 1518 1518 1518 1518 1517 1518 1518 1518 1518 1518
1472 1474 1477 1479 1482 1485 1488 1490 1492 1495 1496 1498 1499 1500 1501 1503 1505 1506 1507 1509 1509 1510 1511 1512 1512 1512 1513 1514 1514 1515 1515 1515 1515 1515 1515 1515 1514 1515 1515 1515 1515 1515 1515
1475 1477 1477 1479 1482 1485 1488 1489 1491 1493 1495 1496 1497 1498 1499 1500 1501 1503 1504 1505 1506 1507 1508 1508 1508 1509 1510 1511 1511 1512 1512 1512 1512 1512 1512 1512 1511 1511 1511 1512 1512 1512 1512
1475 1477 1479 1481 1483 1486 1487 1488 1490 1491 1492 1493 1495 1496 1497 1498 1498 1499 1500 1501 1502 1503 1503 1504 1505 1505 1505 1506 1507 1508 1508 1508 1509 1509 1508 1509 1509 1509 1508 1508 1509 1509 1509
1476 1477 1478 1481 1483 1485 1486 1487 1487 1489 1490 1491 1492 1493 1494 1495 1496 1497 1497 1498 1498 1499 1500 1500 1501 1502 1502 1503 1503 1503 1504 1504 1505 1505 1505 1505 1505 1506 1505 1506 1506 1506 1506
1479 1479 1479 1481 1482 1483 1484 1485 1486 1488 1489 1489 1490 1491 1492 1492 1493 1493 1494 1494 1495 1495 1496 1497 1498 1498 1499 1499 1500 1500 1500 1501 1500 1501 1501 1502 1502 1502 1502 1503 1503 1503 1503
1479 1480 1480 1480 1481 1482 1483 1484 1484 1486 1487 1486 1487 1488 1488 1489 1489 1490 1491 1491 1492 1493 1494 1494 1494 1495 1495 1496 1496 1496 1496 1496 1496 1497 1497 1498 1498 1498 1498 1499 1499 1499 1499
1478 1479 1480 1480 1480 1480 1481 1482 1483 1483 1484 1484 1484 1485 1485 1485 1486 1487 1488 1489 1489 1490 1490 1490 1491 1491 1492 1492 1493 1493 1493 1493 1493 1493 1493 1493 1494 1494 1495 1495 1495 1496 1496
1478 1479 1479 1479 1479 1479 1479 1480 1481 1482 1481 1481 1481 1482 1482 1483 1483 1484 1485 1485 1486 1487 1487 1487 1487 1488 1488 1489 1489 1489 1490 1490 1490 1490 1490 1490 1491 1491 1491 1491 1492 1492 1493
1478 1478 1478 1478 1478 1478 1478 1478 1479 1479 1479 1478 1478 1478 1479 1480 1480 1480 1481 1482 1483 1483 1483 1484 1484 1485 1485 1485 1486 1486 1486 1486 1487 1487 1487 1487 1487 1488 1488 1488 1488 1489 1489
1478 1478 1478 1477 1476 1476 1476 1475 1476 1476 1476 1475 1475 1476 1475 1476 1477 1477 1478 1478 1479 1480 1480 1480 1481 1481 1481 1482 1482 1482 1482 1483 1483 1483 1483 1483 1484 1484 1484 1484 1485 1485 1485
1476 1476 1476 1475 1474 1474 1474 1473 1473 1473 1473 1472 1472 1473 1473 1473 1473 1474 1475 1475 1476 1476 1477 1477 1477 1477 1477 1478 1479 1479 1479 1479 1479 1479 1479 1479 1480 1480 1480 1481 1481 1481 1482
1474 1474 1474 1473 1471 1471 1470 1470 1470 1470 1470 1469 1469 1470 1470 1470 1471 1471 1471 1471 1472 1473 1474 1474 1475 1474 1475 1475 1475 1475 1476 1476 1476 1476 1476 1476 1476 1477 1477 1478 1478 1478 1478